When you browse on this site, cookies collect data to enhance your experience and personalize the content and advertising you see.
Visit our Privacy Policy to learn more. By continuing to use the site, you agree to this use of cookies and data.
  • In Hungary
  • List of Countries
  • For 7 days
  • Water Temperature
  • Satellite Maps
  • Weather Map
  • News
  • Weather Widgets
  • user-avatar
    Login

    Hourly Weather Union City

    Today, 16 June, Sunday

    Time Temperature Precipitation Wind Pressure Humidity
    00:00 +14°C° 0 mm 2 mps 755 mmHg 85%
    01:00 +14°C° 0 mm 1 mps 755 mmHg 85%
    02:00 +14°C° 0 mm 1 mps 754 mmHg 85%
    03:00 +14°C° 0 mm 1 mps 754 mmHg 85%
    04:00 +14°C° 0 mm 1 mps 754 mmHg 85%
    05:00 +15°C° 0 mm 1 mps 754 mmHg 81%
    06:00 +15°C° 0 mm 1 mps 754 mmHg 77%
    07:00 +16°C° 0 mm 1 mps 755 mmHg 73%
    08:00 +20°C° 0 mm 1 mps 754 mmHg 64%
    09:00 +22°C° 0 mm 1 mps 754 mmHg 55%
    10:00 +25°C° 0 mm 1 mps 754 mmHg 46%
    11:00 +27°C° 0 mm 2 mps 754 mmHg 42%
    12:00 +28°C° 0 mm 2 mps 753 mmHg 38%
    13:00 +30°C° 0 mm 3 mps 753 mmHg 34%
    14:00 +29°C° 0 mm 3 mps 753 mmHg 36%
    15:00 +28°C° 0 mm 3 mps 752 mmHg 39%
    16:00 +28°C° 0 mm 3 mps 752 mmHg 41%
    17:00 +26°C° 0 mm 3 mps 752 mmHg 46%
    18:00 +24°C° 0 mm 2 mps 752 mmHg 51%
    19:00 +21°C° 0 mm 2 mps 752 mmHg 56%
    20:00 +20°C° 0 mm 2 mps 752 mmHg 60%
    21:00 +19°C° 0 mm 2 mps 752 mmHg 63%
    22:00 +18°C° 0 mm 2 mps 752 mmHg 66%
    23:00 +19°C° 0 mm 1 mps 752 mmHg 68%

    Tomorrow, 17 June, Monday

    Time Temperature Precipitation Wind Pressure Humidity
    00:00 +18°C° 0 mm 1 mps 751 mmHg 69%
    01:00 +18°C° 0 mm 1 mps 751 mmHg 71%
    02:00 +18°C° 0 mm 1 mps 751 mmHg 71%
    03:00 +18°C° 0 mm 1 mps 751 mmHg 72%
    04:00 +16°C° 0 mm 1 mps 751 mmHg 72%
    05:00 +19°C° 0 mm 1 mps 751 mmHg 66%
    06:00 +20°C° 0 mm 1 mps 751 mmHg 60%
    07:00 +22°C° 0 mm 1 mps 751 mmHg 54%
    08:00 +25°C° 0 mm 1 mps 752 mmHg 48%
    09:00 +27°C° 0 mm 1 mps 752 mmHg 41%
    10:00 +30°C° 0 mm 1 mps 752 mmHg 35%
    11:00 +31°C° 0 mm 2 mps 752 mmHg 34%
    12:00 +32°C° 0 mm 2 mps 752 mmHg 33%
    13:00 +33°C° 0 mm 3 mps 751 mmHg 32%
    14:00 +33°C° 0 mm 3 mps 751 mmHg 34%
    15:00 +31°C° 0 mm 3 mps 751 mmHg 36%
    16:00 +31°C° 0 mm 3 mps 751 mmHg 38%
    17:00 +29°C° 0 mm 3 mps 752 mmHg 41%
    18:00 +27°C° 0 mm 2 mps 752 mmHg 45%
    19:00 +25°C° 0 mm 2 mps 752 mmHg 49%
    20:00 +24°C° 0 mm 2 mps 753 mmHg 52%
    21:00 +23°C° 0 mm 2 mps 753 mmHg 54%
    22:00 +21°C° 0 mm 2 mps 753 mmHg 57%
    23:00 +21°C° 0 mm 1 mps 753 mmHg 59%

    Day after tomorrow, 18 June, Tuesday

    Time Temperature Precipitation Wind Pressure Humidity
    00:00 +21°C° 0 mm 1 mps 753 mmHg 61%
    01:00 +20°C° 0 mm 1 mps 753 mmHg 64%
    02:00 +20°C° 0 mm 1 mps 753 mmHg 65%
    03:00 +20°C° 0 mm 1 mps 753 mmHg 66%
    04:00 +19°C° 0 mm 1 mps 753 mmHg 68%
    05:00 +21°C° 0 mm 1 mps 754 mmHg 63%
    06:00 +22°C° 0 mm 1 mps 754 mmHg 59%
    07:00 +23°C° 0 mm 1 mps 754 mmHg 54%
    08:00 +25°C° 0 mm 1 mps 755 mmHg 49%
    09:00 +28°C° 0 mm 1 mps 755 mmHg 44%
    10:00 +30°C° 0 mm 2 mps 755 mmHg 39%
    11:00 +31°C° 0 mm 2 mps 755 mmHg 37%
    12:00 +33°C° 0 mm 3 mps 755 mmHg 36%
    13:00 +33°C° 0 mm 3 mps 754 mmHg 35%
    14:00 +33°C° 0 mm 3 mps 754 mmHg 37%
    15:00 +31°C° 0 mm 3 mps 754 mmHg 38%
    16:00 +30°C° 0 mm 3 mps 754 mmHg 40%
    17:00 +28°C° 0 mm 3 mps 754 mmHg 45%
    18:00 +26°C° 0 mm 3 mps 754 mmHg 50%
    19:00 +24°C° 0 mm 2 mps 754 mmHg 55%
    20:00 +23°C° 0 mm 2 mps 755 mmHg 59%
    21:00 +21°C° 0 mm 2 mps 755 mmHg 63%
    22:00 +21°C° 0 mm 1 mps 756 mmHg 67%
    23:00 +20°C° 0 mm 1 mps 755 mmHg 68%

    19 June, Wednesday

    Time Temperature Precipitation Wind Pressure Humidity
    00:00 +20°C° 0 mm 1 mps 755 mmHg 69%
    01:00 +20°C° 0 mm 1 mps 755 mmHg 70%
    02:00 +19°C° 0 mm 1 mps 755 mmHg 71%
    03:00 +19°C° 0 mm 1 mps 755 mmHg 72%
    04:00 +19°C° 0 mm 1 mps 755 mmHg 73%
    05:00 +20°C° 0 mm 1 mps 755 mmHg 67%
    06:00 +21°C° 0 mm 1 mps 756 mmHg 62%
    07:00 +21°C° 0 mm 0 mps 756 mmHg 57%
    08:00 +25°C° 0 mm 1 mps 756 mmHg 50%
    09:00 +28°C° 0 mm 1 mps 756 mmHg 44%
    10:00 +30°C° 0 mm 1 mps 756 mmHg 37%
    11:00 +31°C° 0 mm 2 mps 755 mmHg 35%
    12:00 +32°C° 0 mm 2 mps 755 mmHg 33%
    13:00 +34°C° 0 mm 3 mps 755 mmHg 32%
    14:00 +34°C° 0 mm 3 mps 755 mmHg 33%
    15:00 +33°C° 0 mm 3 mps 754 mmHg 34%
    16:00 +33°C° 0 mm 3 mps 754 mmHg 36%
    17:00 +30°C° 0 mm 3 mps 754 mmHg 42%
    18:00 +27°C° 0 mm 3 mps 754 mmHg 48%
    19:00 +25°C° 0 mm 2 mps 754 mmHg 55%
    20:00 +24°C° 0 mm 2 mps 754 mmHg 59%
    21:00 +21°C° 0 mm 2 mps 755 mmHg 63%
    22:00 +21°C° 0 mm 1 mps 755 mmHg 67%
    23:00 +20°C° 0 mm 1 mps 755 mmHg 68%

    20 June, Thursday

    Time Temperature Precipitation Wind Pressure Humidity
    00:00 +20°C° 0 mm 1 mps 754 mmHg 70%
    01:00 +20°C° 0 mm 1 mps 754 mmHg 72%
    02:00 +19°C° 0 mm 1 mps 754 mmHg 73%
    03:00 +19°C° 0 mm 1 mps 754 mmHg 74%
    04:00 +19°C° 0 mm 1 mps 754 mmHg 75%
    05:00 +20°C° 0 mm 1 mps 754 mmHg 70%
    06:00 +21°C° 0 mm 1 mps 754 mmHg 65%
    07:00 +22°C° 0 mm 1 mps 754 mmHg 59%
    08:00 +25°C° 0 mm 1 mps 754 mmHg 52%
    09:00 +27°C° 0 mm 1 mps 754 mmHg 44%
    10:00 +30°C° 0 mm 2 mps 754 mmHg 37%
    11:00 +31°C° 0 mm 2 mps 754 mmHg 35%
    12:00 +33°C° 0 mm 3 mps 754 mmHg 33%
    13:00 +34°C° 0 mm 3 mps 753 mmHg 31%
    14:00 +33°C° 0 mm 3 mps 753 mmHg 33%
    15:00 +31°C° 0 mm 3 mps 753 mmHg 34%
    16:00 +31°C° 0 mm 3 mps 753 mmHg 36%
    17:00 +28°C° 0 mm 3 mps 753 mmHg 42%
    18:00 +26°C° 0 mm 3 mps 753 mmHg 48%
    19:00 +24°C° 0 mm 2 mps 753 mmHg 54%
    20:00 +21°C° 0 mm 2 mps 753 mmHg 57%
    21:00 +20°C° 0 mm 2 mps 753 mmHg 60%
    22:00 +20°C° 0 mm 1 mps 753 mmHg 64%
    23:00 +20°C° 0 mm 1 mps 753 mmHg 64%

    21 June, Friday

    Time Temperature Precipitation Wind Pressure Humidity
    00:00 +19°C° 0 mm 1 mps 753 mmHg 64%
    01:00 +19°C° 0 mm 1 mps 753 mmHg 64%
    02:00 +19°C° 0 mm 1 mps 753 mmHg 66%
    03:00 +18°C° 0 mm 1 mps 753 mmHg 67%
    04:00 +18°C° 0 mm 1 mps 753 mmHg 69%
    05:00 +19°C° 0 mm 1 mps 753 mmHg 64%
    06:00 +18°C° 0 mm 0 mps 753 mmHg 60%
    07:00 +20°C° 0 mm 0 mps 753 mmHg 56%
    08:00 +24°C° 0 mm 1 mps 753 mmHg 49%
    09:00 +26°C° 0 mm 1 mps 753 mmHg 43%
    10:00 +29°C° 0 mm 2 mps 753 mmHg 37%
    11:00 +30°C° 0 mm 2 mps 753 mmHg 35%
    12:00 +30°C° 0 mm 3 mps 753 mmHg 34%
    13:00 +31°C° 0 mm 3 mps 753 mmHg 33%
    14:00 +31°C° 0 mm 3 mps 752 mmHg 34%
    15:00 +30°C° 0 mm 3 mps 752 mmHg 35%
    16:00 +30°C° 0 mm 3 mps 752 mmHg 36%
    17:00 +28°C° 0 mm 3 mps 752 mmHg 39%
    18:00 +26°C° 0 mm 2 mps 752 mmHg 43%
    19:00 +24°C° 0 mm 2 mps 752 mmHg 47%
    20:00 +23°C° 0 mm 2 mps 752 mmHg 50%
    21:00 +20°C° 0 mm 2 mps 752 mmHg 52%
    22:00 +20°C° 0 mm 1 mps 752 mmHg 55%
    23:00 +20°C° 0 mm 1 mps 752 mmHg 56%
    Show more